GW1374 Weather Reports


Display with metric or nautical units.
time (UTC)temp
F
wind
direction
speed
MPH
gust
MPH
rain 1hr
in
rain 24hr
in
rain mn
in
humidity
%
barometer
mb
20260509071551 43 0 0.0 1.0 0.00 0.00 0.00 85 1009.4
20260509070050 42 0 0.0 2.0 0.00 0.00 0.00 80 1009.4
20260509064553 42 119 0.0 2.0 0.00 0.00 0.00 79 1009.5
20260509063047 43 165 0.0 2.0 0.00 0.00 0.00 77 1009.7
20260509061600 43 0 0.0 2.0 0.00 0.00 0.00 76 1009.9
20260509060048 44 178 1.0 2.0 0.00 0.00 0.00 73 1010.2
20260509054605 44 51 0.0 2.0 0.00 0.00 0.00 71 1010.2
20260509053055 44 119 0.0 2.0 0.00 0.00 0.00 69 1010.5
20260509051549 44 119 0.0 2.0 0.00 0.00 0.00 69 1010.4
20260509050052 44 131 0.0 2.0 0.00 0.00 0.00 67 1010.2
20260509044545 44 0 0.0 2.0 0.00 0.00 0.00 67 1010.4
20260509043041 45 115 1.0 2.0 0.00 0.00 0.00 66 1010.4
20260509041542 45 126 0.0 2.0 0.00 0.00 0.00 64 1010.5
20260509040045 45 0 0.0 2.0 0.00 0.00 0.00 64 1010.4
20260509034541 45 105 1.0 2.0 0.00 0.00 0.00 63 1010.3
20260509033045 45 105 1.0 2.0 0.00 0.00 0.00 63 1010.3
20260509031604 45 93 1.0 2.0 0.00 0.00 0.00 64 1010.4
20260509030050 46 93 0.0 2.0 0.00 0.00 0.00 65 1010.7
20260509024541 46 115 1.0 2.0 0.00 0.00 0.00 62 1010.9
20260509023041 47 110 1.0 3.0 0.00 0.00 0.00 61 1010.8
20260509021548 47 115 1.0 3.0 0.00 0.00 0.00 60 1010.7
20260509020049 47 115 1.0 2.0 0.00 0.00 0.00 60 1010.9
20260509014544 47 126 0.0 2.0 0.00 0.00 0.00 60 1010.8
20260509013042 48 142 1.0 3.0 0.00 0.00 0.00 60 1010.7
20260509011541 48 126 0.0 2.0 0.00 0.00 0.00 61 1010.4
20260509010049 48 0 1.0 3.0 0.00 0.00 0.00 60 1010.0
20260509004542 49 115 1.0 2.0 0.00 0.00 0.00 58 1009.9
20260509003047 49 105 1.0 2.0 0.00 0.00 0.00 57 1009.8
20260509001544 49 0 1.0 2.0 0.00 0.00 0.00 56 1009.8
20260509000045 50 0 0.0 1.0 0.00 0.00 0.00 52 1009.7
20260508234548 51 0 0.0 1.0 0.00 0.00 0.00 53 1009.7
20260508233053 51 93 1.0 2.0 0.00 0.00 0.00 51 1009.5
20260508231543 51 83 1.0 2.0 0.00 0.00 0.00 52 1009.5
20260508230122 52 83 0.0 3.0 0.00 0.00 0.00 53 1009.4
20260508224553 52 51 0.0 3.0 0.00 0.00 0.00 52 1009.3
20260508223049 53 162 1.0 3.0 0.00 0.00 0.00 49 1009.2
20260508221547 53 47 1.0 4.0 0.00 0.00 0.00 50 1009.1
20260508220113 53 20 2.0 6.0 0.00 0.00 0.00 48 1009.3
20260508214556 53 76 1.0 4.0 0.00 0.00 0.00 50 1009.4
20260508213053 53 51 0.0 6.0 0.00 0.00 0.00 50 1009.6
20260508211548 53 18 2.0 7.0 0.00 0.00 0.00 51 1009.5
20260508210046 52 101 1.0 4.0 0.00 0.00 0.00 52 1009.7
20260508204546 51 0 1.0 4.0 0.00 0.00 0.00 50 1009.8
20260508203048 52 80 1.0 6.0 0.00 0.00 0.00 52 1010.0
20260508201548 53 309 1.0 7.0 0.00 0.00 0.00 49 1009.9
20260508200043 53 309 2.0 7.0 0.00 0.00 0.00 47 1010.0
20260508194542 51 75 2.0 6.0 0.00 0.00 0.00 52 1010.1
20260508193052 50 9 2.0 6.0 0.00 0.00 0.00 57 1010.2
20260508191547 49 250 1.0 6.0 0.00 0.00 0.00 58 1010.4
20260508190101 50 47 1.0 12.0 0.00 0.00 0.00 59 1010.6
20260508184552 49 313 3.0 6.0 0.00 0.00 0.00 60 1010.9
20260508183046 48 247 2.0 5.0 0.00 0.00 0.00 64 1011.2
20260508181605 48 312 1.0 7.0 0.00 0.00 0.00 67 1011.3
20260508180101 48 301 3.0 8.0 0.00 0.00 0.00 65 1011.3
20260508174602 46 265 1.0 4.0 0.00 0.00 0.00 70 1011.3
20260508173041 46 286 1.0 5.0 0.00 0.00 0.00 72 1011.4
20260508171549 45 149 1.0 3.0 0.00 0.00 0.00 72 1011.3
20260508170049 45 221 1.0 6.0 0.00 0.00 0.00 75 1011.2
20260508164549 43 232 1.0 4.0 0.00 0.00 0.00 82 1011.3
20260508163048 41 103 1.0 4.0 0.00 0.00 0.00 86 1011.3
20260508161542 40 34 1.0 4.0 0.00 0.00 0.00 88 1011.6
20260508160046 39 9 1.0 4.0 0.00 0.00 0.00 89 1011.8
20260508154545 39 47 1.0 4.0 0.00 0.00 0.00 90 1012.0
20260508153047 39 59 1.0 4.0 0.00 0.00 0.00 90 1011.6
20260508151540 39 111 1.0 3.0 0.00 0.00 0.00 89 1011.4
20260508150049 38 298 1.0 3.0 0.00 0.00 0.00 89 1011.5
20260508144553 38 80 1.0 3.0 0.00 0.00 0.00 89 1011.5
20260508143046 39 61 1.0 3.0 0.00 0.00 0.00 88 1011.5
20260508141555 39 76 1.0 2.0 0.00 0.00 0.00 88 1011.4
20260508140043 39 265 0.0 4.0 0.00 0.00 0.00 87 1011.4
20260508134558 39 293 2.0 6.0 0.00 0.00 0.00 85 1011.1
20260508133048 40 265 0.0 2.0 0.00 0.00 0.00 85 1010.8
20260508131548 40 0 0.0 3.0 0.00 0.00 0.00 83 1010.6
20260508130044 40 282 1.0 2.0 0.00 0.00 0.00 82 1010.7
20260508124542 40 247 1.0 3.0 0.00 0.00 0.00 82 1010.4
20260508123103 40 291 1.0 3.0 0.00 0.00 0.00 85 1010.3
20260508121543 40 146 1.0 2.0 0.00 0.00 0.00 84 1010.4
20260508120048 39 137 0.0 2.0 0.00 0.00 0.00 85 1010.4
20260508114551 39 157 1.0 3.0 0.00 0.00 0.00 88 1010.3
20260508113057 38 51 0.0 2.0 0.00 0.00 0.00 87 1010.7
20260508111546 37 0 0.0 1.0 0.00 0.00 0.00 87 1010.7
20260508110044 37 51 0.0 2.0 0.00 0.00 0.00 86 1010.7
20260508104547 36 0 0.0 1.0 0.00 0.00 0.00 86 1010.5
20260508103041 36 51 0.0 2.0 0.00 0.00 0.00 86 1010.3
20260508101544 36 119 0.0 2.0 0.00 0.00 0.00 84 1010.3
20260508100043 36 279 1.0 2.0 0.00 0.00 0.00 84 1010.4
20260508094606 36 286 1.0 3.0 0.00 0.01 0.00 84 1010.4
20260508093041 36 309 1.0 2.0 0.00 0.01 0.00 82 1010.4
20260508091549 37 0 0.0 2.0 0.00 0.01 0.00 82 1010.4
20260508090052 37 9 1.0 2.0 0.00 0.01 0.00 82 1010.5
20260508084542 38 301 1.0 2.0 0.00 0.01 0.00 82 1010.1
20260508083046 38 9 1.0 2.0 0.00 0.01 0.00 82 1010.3
20260508081600 38 303 1.0 3.0 0.00 0.01 0.00 82 1010.2
20260508080041 39 319 1.0 3.0 0.00 0.01 0.00 82 1010.0
20260508074550 39 298 1.0 3.0 0.00 0.01 0.00 82 1009.6
20260508073048 40 301 1.0 3.0 0.00 0.01 0.00 83 1009.8